エレーニン彗星

C/2017 A3 ( Elenin )

English version
Home page
Updated on February 7, 2017

---------------------------------------------------------------------

・ プロフィール

発見日 2017年1月5日
発見光度 17.6等
発見者 L. Elenin (ISON-SSO Observatory at Siding Spring)

・ 写真集

・ 軌道要素

Epoch 2017 Feb. 16.0 TT = JDT 2457800.5
T 2017 Jan. 31.34400 TT                                 MPCW
q   3.8595088            (2000.0)            P               Q
z  +0.0199344      Peri.  304.20992     -0.19830118     -0.02924292
                   Node    97.79757     +0.82101897     +0.54100245
e   0.9230629      Incl.   98.56479     -0.53535456     +0.84051246
From 92 observations 2017 Jan. 5-17, mean residual 0".5.

・ 光度変化

        m1 = 9.0 + 5 logΔ + 10.0 log r

---------------------------------------------------------------------

軌道要素はM.P.E.C. 2017-B21に掲載されたものです。
光度グラフはComet for Windowsで作成したものです。

---------------------------------------------------------------------

Copyright(C) Seiichi Yoshida (comet@aerith.net). All rights reserved.